Location: Proctor
(47.8934°N, 114.3048°W)
Time: 11:03:09
(UTC+00:00)

Transit 4A - Pass Details

Date: 04 July 2024
Orbit: 870 x 973 km, 66.8° (Epoch: 13 July)

Event Time Altitude Azimuth Distance (km) Brightness Sun altitude
Rises 04:54:46 0° 248° (WSW) 3,454 11.1 -10.0°
Reaches altitude 10° 04:57:31 10° 259° (WSW) 2,517 10.5 -10.3°
Maximum altitude 05:02:39 31° 321° (NW) 1,481 9.9 -10.8°
Drops below altitude 10° 05:07:49 10° 23° (NNE) 2,542 10.6 -11.3°
Sets 05:10:38 0° 33° (NNE) 3,495 11.2 -11.6°
